sat.trackr.live / text

‹ back to catalog

STARLINK-37215

NORAD 68392 · 2026-063N

PAYLOAD ACTIVE UNKNOWN

§ Identity

Operator
Country
US
Launch date
2026-03-26
Launch site
AFWTR
Launch vehicle
Mass (kg)
RCS (m²)

Purposes: comms

External: N2YO · Heavens-Above · Gunter

§ Orbital elements

Epoch: 2026-05-25T00:00:02.000160Z

Period
93.90 min
Inclination
97.2844°
Eccentricity
0.0000625
Mean motion
15.33465362 rev/d
Perigee alt
465.1 km
Apogee alt
465.9 km
Semi-major
6,843.6 km
B*
-1.4573e-3
RAAN
287.5387°
Arg perigee
26.5759°
Mean anomaly
146.4408°
Rev number
559

§ Raw data

STARLINK-372151 68392U 26063N   26145.00002315 -.00046863  00000+0 -14573-2 0  99942 68392  97.2844 287.5387 0000625  26.5759 146.4408 15.33465362  5595

JSON: /api/v1/satellites/68392 · /tle

For live sub-satellite position, see the globe view (requires WebGL).

§ Visibility from observer

Set your observer location to see the next 7 days of passes ≥ 10°. The values pass through the URL so the page stays shareable.

No JS? Fill the form by hand. The geolocation button needs JavaScript.